Location: Chagrin Falls Park
(41.4139°N, 81.3865°W)
Time: 10:53:32
(UTC+00:00)

X-37B - Pass Details

Date: 06 August 2021
Orbit: 381 x 393 km, 45.0° (Epoch: 29 August)

Event Time Altitude Azimuth Distance (km) Brightness Sun altitude
Exits shadow 09:38:14 - 285° (WNW) 1,782 3.5 -8.7°
Reaches altitude 10° 09:39:13 10° 289° (WNW) 1,397 3.0 -8.6°
Maximum altitude 09:42:12 40° 1° (N) 577 1.8 -8.1°
Drops below altitude 10° 09:45:12 10° 74° (ENE) 1,398 4.9 -7.6°
Sets 09:47:20 0° 82° (E) 2,252 6.0 -7.3°
